DW8306 Weather Reports


Display with metric or nautical units.
time (UTC)temp
F
wind
direction
speed
MPH
gust
MPH
rain 1hr
in
rain 24hr
in
rain mn
in
humidity
%
barometer
mb
20260505021605 71 205 0.0 1.0 0.00 0.00 0.00 73 1008.4
20260505020107 71 199 0.0 1.0 0.00 0.00 0.00 72 1008.0
20260505014613 72 211 0.0 0.0 0.00 0.00 0.00 72 1008.3
20260505013023 73 211 0.0 0.0 0.00 0.00 0.00 70 1008.0
20260505011522 73 211 0.0 0.0 0.00 0.00 0.00 68 1007.8
20260505010006 74 210 0.0 1.0 0.00 0.00 0.00 65 1007.9
20260505004608 76 210 0.0 0.0 0.00 0.00 0.00 62 1008.0
20260505003009 77 210 0.0 1.0 0.00 0.00 0.00 60 1008.1
20260505001618 79 158 0.0 1.0 0.00 0.00 0.00 57 1008.3
20260505000021 80 158 0.0 1.0 0.00 0.00 0.00 56 1008.4
20260504234634 81 156 0.0 4.0 0.00 0.00 0.00 54 1008.6
20260504233108 81 317 1.0 4.0 0.00 0.00 0.00 52 1008.4
20260504231531 82 336 0.0 2.0 0.00 0.00 0.00 51 1008.6
20260504230011 82 160 0.0 2.0 0.00 0.00 0.00 50 1009.0
20260504224609 83 159 0.0 4.0 0.00 0.00 0.00 48 1009.2
20260504223011 84 153 0.0 4.0 0.00 0.00 0.00 47 1009.3
20260504221516 84 186 0.0 1.0 0.00 0.00 0.00 47 1009.6
20260504220012 84 134 0.0 3.0 0.00 0.00 0.00 47 1009.9
20260504214528 84 152 0.0 2.0 0.00 0.00 0.00 48 1010.0
20260504213019 83 122 0.0 2.0 0.00 0.00 0.00 46 1010.2
20260504211517 83 158 0.0 4.0 0.00 0.00 0.00 49 1010.5
20260504210107 83 200 0.0 2.0 0.00 0.00 0.00 49 1010.6
20260504204539 82 172 0.0 2.0 0.00 0.00 0.00 48 1011.1
20260504203014 82 231 0.0 4.0 0.00 0.00 0.00 50 1011.4
20260504201622 82 130 0.0 4.0 0.00 0.00 0.00 50 1011.7
20260504200015 81 162 0.0 4.0 0.00 0.00 0.00 50 1011.8
20260504194512 81 177 0.0 3.0 0.00 0.00 0.00 52 1012.2
20260504193110 81 178 1.0 4.0 0.00 0.00 0.00 51 1012.5
20260504191511 80 177 1.0 4.0 0.00 0.00 0.00 52 1012.9
20260504190009 81 131 0.0 3.0 0.00 0.00 0.00 53 1013.1
20260504184609 80 169 0.0 2.0 0.00 0.00 0.00 53 1013.2
20260504183007 80 179 2.0 5.0 0.00 0.00 0.00 51 1013.5
20260504181509 80 228 1.0 5.0 0.00 0.00 0.00 49 1013.8
20260504180004 79 180 2.0 5.0 0.00 0.00 0.00 48 1013.8
20260504174510 80 147 1.0 3.0 0.00 0.00 0.00 52 1014.0
20260504173009 78 270 1.0 5.0 0.00 0.00 0.00 53 1014.2
20260504170115 78 166 1.0 4.0 0.00 0.00 0.00 52 1014.3
20260504130114 64 137 0.0 2.0 0.00 0.00 0.00 72 1015.0
20260504090111 58 283 0.0 1.0 0.00 0.00 0.00 79 1014.8
20260504050020 60 14 0.0 0.0 0.00 0.00 0.00 81 1016.0
20260504044605 60 14 0.0 0.0 0.00 0.00 0.00 80 1016.0
20260504043005 61 14 0.0 0.0 0.00 0.00 0.00 79 1016.2
20260504041611 61 14 0.0 0.0 0.00 0.00 0.00 78 1016.3
20260504040015 61 16 0.0 0.0 0.00 0.00 0.00 78 1016.4
20260504034518 62 16 0.0 0.0 0.00 0.00 0.00 78 1016.4
20260504033108 62 16 0.0 0.0 0.00 0.00 0.00 77 1016.4
20260504031515 62 16 0.0 0.0 0.00 0.00 0.00 78 1016.5
20260504030025 63 16 0.0 0.0 0.00 0.00 0.00 77 1016.5
20260504024614 63 16 0.0 0.0 0.00 0.00 0.00 77 1016.6
20260504023010 64 16 0.0 0.0 0.00 0.00 0.00 77 1016.5